STARLINK-33650, 63321

Orbit data source: Space-Track

STARLINK-33650, 63321 is a payload satellite owned by SpaceX/Seattle (US) in LEO that was launched on Tue, 18 Mar 2025 UTC via an FALCON 9 launch vehicle from the Air Force Eastern Test Range (AFETR). Payload-class satellites include a variety of spacecraft equipped with specific instruments for various scientific and technological missions. These include communications satellites like Starlink; space stations such as the ISS; scientific satellites like the Hubble; Earth observation satellites from companies like Planet Labs, Umbra, and HawkEye 360; GPS; miniature CubeSats for education and research; and military/defense satellites.

Loading next visibility...
Identifier
63321, 2025-057Q
Orbit
LEO
Last TLE update
10 hours ago
Origin
Manufacturer
SpaceX/Seattle
Mission
Operational Commercial Communications
Bus & Motor
STARLINK V2MO, Unknown motor
Mass
575 kg wet, ~530 kg dry
Launch date (UTC)
2025-03-18 (2 months ago)
Launch vehicle
FALCON 9
Launch site
Air Force Eastern Test Range (AFETR)
Object type
Payload
Rocket body
Debris
Shape & HBR
Box + 1 Pan, 29 m
Radar Cross Section
41.120 m², Large (>1 m²)

Expand to show TLE details & history

TLE from 10 hours ago
0 STARLINK-33650
1 63321U 25057Q   25128.81647931  .00008170  00000-0  30653-3 0  9997
2 63321  42.9994 312.3892 0001052 299.9052  60.1695 15.27530047  8881
Epoch: 2025-05-08T19:35Z
Definitive object data (Epoch: 2025-05-08T19:35:43.812Z)
Latitude
-0.00002°
Longitude
151.57509°
Altitude
482.615 km
Speed
7.626 km/s
True Right ascension
20h 49m 33s
True Declination
0° 00' 00"
Sunlit
Object was in daylight at TLE epoch
Visualization TLE readout
Latitude
40.65876°
Longitude
-97.09612°
Altitude
486.483 km
Speed
7.627 km/s
Apparent Right ascension
02h 58m 45s
Apparent Declination
2° 17' 03"
Sunlit
Object is in daylight
Visualization observer readout
Local Sidereal Time
13:37:31
Azimuth
331.241° NNW
Elevation
-43.881°
Doppler factor
1
Orbital elements
Apogee altitude
485.866 km
Perigee altitude
484.422 km
Semi-major axis
6,863.281 km
Eccentricity
0.0001052
Inclination
42.9994°
RAAN
312.3892°
Arg. of periapsis
299.9052°
True anomaly
60.17996°
Mean anomaly
60.1695°
Eccentric anomaly
60.17473°
Mean motion
3.81721 °/min
BSTAR
0.00030653
Orbital period
94.31 mins
Loading maneuver chart data...
Loading SW <> Apogee altitude chart data...
Loading historical data...
Loading historical data...
Loading historical data...
Loading historical data...
Loading historical data...
Loading historical data...
Loading historical data...

STARLINK-33650 Visibility forecast

Observer location: undefined°, undefined°

Span
Click to sort rows by Start time (UTC) header in descending order
Start Az.
Max El. time (UTC)
Max El. Az.
Max El.
End time (UTC)
End Az.
4 mins2025-05-09 14:36:50.694Z178.528° S2025-05-09 14:38:50.694Z141.626° SSE16.827°2025-05-09 14:40:50.694Z105.935° ESE
6 mins2025-05-09 16:14:50.694Z241.813° WSW2025-05-09 16:16:50.694Z217.434° SW41.866°2025-05-09 16:20:50.694Z73.684° E
6 mins2025-05-09 17:53:50.694Z283.622° WNW2025-05-09 17:56:50.694Z24.73° NE36.965°2025-05-09 17:59:50.694Z73.429° E
5 mins2025-05-09 19:33:50.694Z295.833° NW2025-05-09 19:35:50.694Z48.052° ENE42.795°2025-05-09 19:38:50.694Z98.225° ESE
4 mins2025-05-09 21:12:50.694Z255.49° W2025-05-09 21:14:50.694Z194.529° SSW28.117°2025-05-09 21:16:50.694Z152.988° SSE
|